Weather History for Bismarck, ND

Change the Weather History Date:

Thursday, March 7, 2013

  Actual Average Record
Temperature  
Mean Temperature 23 °F 26 °F  
Max Temperature 30 °F 36 °F 66 °F (1898)
Min Temperature 16 °F 16 °F -21 °F (1995)
Degree Days  
Heating Degree Days 42 39  
Month to date heating degree days 284 284  
Since 1 July heating degree days 6593 6715  
Cooling Degree Days 0 0  
Month to date cooling degree days 0 0  
Year to date cooling degree days 0 0  
Moisture  
Dew Point 19 °F    
Average Humidity 82    
Maximum Humidity 92    
Minimum Humidity 72    
Precipitation  
Precipitation 0.00 in 0.03 in 0.17 in (1983)
Month to date precipitation 0.49 0.17  
Year to date precipitation 1.08 1.11  
Snow  
Snow 0.00 in 0.30 in 3.60 in (1983)
Month to date snowfall 1.6 2.2  
Since 1 July snowfall 30.2 39.7  
Snow Depth 2.00 in    
Sea Level Pressure  
Sea Level Pressure 30.12 in    
Wind  
Wind Speed 9 mph (SSE)    
Max Wind Speed 18 mph    
Max Gust Speed 22 mph    
Visibility 9 miles    
Events      
T = Trace of Precipitation, MM = Missing Value Source: NWS Daily Summary

Daily Weather History Graph

Daily Weather History Graph

Search for Another Location

Airport:

Trip Planner

Search our weather history database for the weather conditions in past years. The results will help you decide how hot, cold, wet, or windy it might be!

Date:

Astronomy

Mar. 07, 2013 Rise Set
Actual Time 7:10 AM CST 6:37 PM CST
Civil Twilight 6:40 AM CST 7:08 PM CST
Nautical Twilight 6:05 AM CST 7:43 PM CST
Astronomical Twilight 5:30 AM CST 8:18 PM CST
Moon 4:25 AM CST (3/7) 2:15 PM CST (3/7)
Length of Visible Light 12h 27m
Length of Day
11h 27m
Waning Crescent, 20% of the Moon is Illuminated
Mar 7
Waning Crescent
Mar 11
New
Mar 19
First Quarter
Mar 27
Full
Apr 2
Last Quarter

Hourly Weather History & Observations

Time (CST) Temp. Windchill Dew Point Humidity Pressure Visibility Wind Dir Wind Speed Gust Speed Precip Events Conditions
12:52 AM 18.0 °F 3.6 °F 14.0 °F 84% 30.15 in 10.0 mi ESE 15.0 mph - N/A   Overcast
1:52 AM 19.0 °F 6.1 °F 15.1 °F 85% 30.15 in 10.0 mi ESE 12.7 mph - N/A   Overcast
2:52 AM 18.0 °F 5.4 °F 15.1 °F 88% 30.12 in 10.0 mi East 11.5 mph - N/A   Overcast
3:11 AM 19.0 °F 5.6 °F 15.1 °F 85% 30.01 in 10.0 mi ESE 13.8 mph - N/A   Scattered Clouds
3:52 AM 19.0 °F 6.8 °F 15.1 °F 85% 30.09 in 10.0 mi East 11.5 mph - N/A   Clear
4:52 AM 19.0 °F 5.6 °F 15.1 °F 85% 30.08 in 10.0 mi East 13.8 mph - N/A   Clear
5:52 AM 18.0 °F 5.4 °F 14.0 °F 84% 30.10 in 10.0 mi East 11.5 mph - N/A   Clear
6:31 AM 16.0 °F 3.6 °F 12.9 °F 88% 30.01 in 10.0 mi East 10.4 mph - N/A   Mostly Cloudy
6:52 AM 16.0 °F 2.9 °F 12.9 °F 88% 30.10 in 9.0 mi East 11.5 mph - N/A   Overcast
7:23 AM 19.9 °F 8.6 °F 16.0 °F 85% 30.01 in 8.0 mi ESE 10.4 mph - N/A   Overcast
7:52 AM 19.9 °F 8.6 °F 16.0 °F 85% 30.11 in 8.0 mi ESE 10.4 mph - N/A   Overcast
8:52 AM 21.2 °F 7.3 °F 17.6 °F 86% 30.02 in 8.0 mi SE 16.1 mph - N/A   Overcast
9:52 AM 21.9 °F 7.8 °F 19.0 °F 89% 30.12 in 8.0 mi SE 17.3 mph - N/A   Overcast
10:52 AM 24.1 °F 12.5 °F 19.0 °F 81% 30.12 in 8.0 mi SSE 12.7 mph - N/A   Overcast
11:52 AM 25.0 °F 14.2 °F 19.9 °F 81% 30.12 in 8.0 mi SSE 11.5 mph - N/A   Overcast
12:52 PM 26.1 °F 15.0 °F 21.0 °F 81% 30.12 in 8.0 mi SSE 12.7 mph - N/A   Overcast
1:52 PM 27.0 °F 18.0 °F 21.9 °F 81% 30.10 in 9.0 mi SSE 9.2 mph - N/A   Overcast
2:52 PM 28.9 °F 22.8 °F 21.9 °F 75% 30.12 in 9.0 mi SW 5.8 mph - N/A   Overcast
3:11 PM 28.9 °F 23.9 °F 21.9 °F 75% 30.05 in 9.0 mi SSW 4.6 mph - N/A   Overcast
3:39 PM 28.9 °F 22.8 °F 23.0 °F 78% 30.06 in 10.0 mi SW 5.8 mph - N/A   Overcast
3:52 PM 28.9 °F 22.8 °F 23.0 °F 78% 30.14 in 10.0 mi SW 5.8 mph - N/A   Overcast
4:12 PM 28.9 °F 21.9 °F 23.0 °F 78% 30.06 in 10.0 mi WSW 6.9 mph - N/A   Overcast
4:24 PM 28.9 °F 23.9 °F 23.0 °F 78% 30.06 in 10.0 mi West 4.6 mph - N/A   Overcast
4:52 PM 28.9 °F 25.2 °F 23.0 °F 78% 30.14 in 10.0 mi WSW 3.5 mph - N/A   Overcast
5:52 PM 28.9 °F 23.9 °F 23.0 °F 78% 30.16 in 10.0 mi West 4.6 mph - N/A   Overcast
6:52 PM 30.0 °F - 23.0 °F 75% 30.17 in 10.0 mi Calm Calm - N/A   Overcast
7:52 PM 28.0 °F 22.8 °F 23.0 °F 81% 30.17 in 10.0 mi South 4.6 mph - N/A   Overcast
8:10 PM 28.0 °F 24.2 °F 23.0 °F 81% 30.10 in 10.0 mi South 3.5 mph - N/A   Scattered Clouds
8:52 PM 25.0 °F - 21.9 °F 88% 30.19 in 9.0 mi Calm Calm - N/A   Mostly Cloudy
9:52 PM 27.0 °F 21.6 °F 24.1 °F 89% 30.21 in 9.0 mi South 4.6 mph - N/A   Overcast
10:52 PM 28.0 °F - 24.1 °F 85% 30.22 in 9.0 mi Calm Calm - N/A   Overcast
11:52 PM 26.6 °F - 21.2 °F 80% 30.15 in 8.0 mi Calm Calm - N/A   Scattered Clouds